Wind_Speed
65 64 64 63 63 63 63 62 61 60 59 59 59 58 58 57 56 56 56 57 58 60 62 64 64 64 65 66 66 67 68 69 69 70 71 73 75 76 78 79 80 79 73 68 70 70 69 69 68 67 67 67 67 67 67 67 67 66 66 65 65 65 65
61 59 58 57 57 57 58 58 58 58 59 59 59 59 59 59 59 59 59 59 60 61 63 64 65 65 67 68 69 69 70 71 72 74 74 76 77 77 78 80 80 79 75 70 69 71 70 70 70 69 69 69 69 69 69 70 69 69 68 68 68 67 67
58 56 55 53 53 53 54 55 56 57 58 58 59 59 60 60 61 62 62 62 63 63 64 65 65 66 67 68 69 69 70 72 73 74 75 75 76 77 77 79 79 78 76 73 71 72 72 72 72 72 71 72 72 72 72 72 72 72 71 70 70 70 69
57 55 55 54 54 54 55 55 56 57 58 58 59 60 60 61 62 63 64 64 65 66 67 67 67 68 69 70 70 70 71 73 73 74 75 75 76 77 78 79 79 79 78 77 74 73 74 75 75 75 75 75 75 75 75 75 74 74 73 73 72 72 71
56 56 56 57 57 57 58 58 59 59 59 60 60 61 61 63 63 64 65 66 67 68 69 70 70 71 72 72 73 73 74 75 76 76 77 77 78 79 80 80 81 81 81 80 78 76 77 78 78 78 78 78 78 78 78 77 77 76 76 75 75 74 73
60 61 61 61 60 60 60 60 61 62 62 63 64 64 65 65 66 66 67 68 69 70 70 71 72 73 74 75 75 76 76 77 78 78 79 80 80 81 82 82 83 83 83 83 82 80 80 81 81 80 80 80 80 80 80 79 79 78 78 77 76 75 74
65 65 65 65 65 64 64 63 63 64 65 66 67 67 68 69 69 70 70 71 72 72 73 73 74 75 76 77 77 78 79 79 80 81 81 81 82 83 84 84 84 85 85 85 84 83 82 82 83 82 82 81 82 82 82 81 81 80 79 78 78 77 77
66 67 67 67 67 67 67 67 67 67 68 69 69 70 71 71 72 73 73 74 74 75 76 76 77 78 78 79 79 80 81 81 82 83 83 83 84 85 85 86 86 87 87 87 86 85 84 84 85 84 83 83 84 83 83 82 82 81 81 80 80 79 79
67 66 66 66 66 66 67 68 69 69 70 71 72 72 73 73 74 75 75 75 76 77 77 78 79 79 80 81 81 82 83 83 84 85 85 85 86 87 87 87 88 88 88 88 88 87 86 86 86 84 84 84 84 83 83 83 83 83 82 82 81 80 79
69 68 68 67 67 68 68 69 70 71 71 72 73 73 74 74 75 75 76 76 77 77 78 79 80 80 81 82 83 83 84 85 85 86 86 86 87 88 88 88 88 88 88 88 88 87 86 86 85 84 84 84 84 83 84 84 84 84 83 83 83 81 81
72 71 70 70 70 71 72 72 73 73 73 74 75 75 75 75 76 76 77 77 78 78 79 80 81 82 83 84 85 86 86 87 87 87 87 87 87 88 88 88 88 88 88 89 89 88 87 87 86 84 85 85 85 85 85 85 85 85 85 85 84 83 82
73 72 72 72 73 74 75 76 76 76 77 77 78 78 78 78 78 79 79 80 81 81 82 83 84 85 86 87 87 88 88 88 88 88 88 88 88 88 89 89 89 89 89 90 90 90 89 88 87 86 87 87 87 87 87 87 87 87 86 86 86 84 84
74 74 75 75 76 77 77 78 78 78 79 80 80 81 81 81 81 81 82 83 83 84 84 84 85 85 86 87 87 88 88 89 89 89 90 90 90 90 90 91 91 91 91 92 92 91 90 88 88 88 88 88 89 90 89 89 89 89 89 89 88 86 86
76 78 79 79 79 79 79 79 80 80 81 81 82 82 82 82 82 83 83 84 85 85 86 86 87 87 87 88 89 89 90 90 90 91 91 91 91 91 91 91 91 91 91 92 92 91 89 87 88 89 88 88 90 90 89 89 89 89 90 90 89 88 88
79 80 80 80 80 80 79 80 81 81 82 83 83 84 84 84 84 85 86 86 87 88 88 89 89 90 90 90 90 91 91 91 90 90 90 90 90 90 89 89 89 89 90 90 90 90 89 87 87 88 87 87 88 89 89 89 89 89 89 89 89 88 88
80 80 80 80 80 80 80 81 82 83 83 84 85 85 85 85 85 86 86 87 88 88 89 89 89 90 90 90 90 90 91 91 91 90 90 90 89 89 89 88 88 89 90 90 90 90 89 87 87 87 88 87 88 88 88 88 89 88 88 88 88 87 87
80 81 81 81 82 82 82 83 84 84 84 84 85 85 84 84 84 84 85 85 86 86 87 87 88 89 89 89 90 90 91 91 92 91 91 91 91 90 90 90 90 91 91 91 92 92 91 90 89 89 89 89 89 89 89 89 89 88 88 89 89 87 86
81 81 82 82 82 82 82 82 82 82 82 82 83 83 82 82 82 83 84 84 85 86 87 88 89 90 90 91 91 92 92 93 94 94 94 94 93 93 92 92 92 93 93 93 93 93 93 92 92 91 91 91 91 91 92 91 90 89 90 91 89 88 88
80 80 80 80 80 80 80 80 80 81 81 81 82 83 83 83 84 85 86 86 87 88 89 90 91 92 92 93 93 94 94 95 95 96 95 96 95 95 94 94 94 95 94 94 94 94 94 94 93 93 93 93 93 93 94 93 91 91 92 91 90 89 90
78 77 77 78 78 79 80 80 81 82 83 84 85 86 86 87 87 88 88 89 89 89 90 91 91 92 92 93 93 93 94 95 95 96 95 95 95 95 94 94 95 95 94 94 94 93 93 93 93 93 94 93 93 93 94 94 93 92 92 92 91 90 91
76 76 77 78 79 81 82 83 84 85 86 87 87 88 88 88 88 89 89 89 89 89 90 91 92 92 93 94 94 95 95 96 96 97 97 97 97 96 96 96 96 96 95 95 94 94 93 93 92 92 92 92 93 93 93 93 93 92 92 91 91 91 91
77 78 79 80 82 83 84 85 85 86 86 87 87 88 88 89 89 89 90 90 91 92 92 93 94 95 96 97 98 98 99 99 100 101 101 101 101 101 101 101 100 100 99 99 98 97 96 95 94 94 93 93 94 94 94 94 93 92 91 91 91 91 91
80 81 82 82 83 84 84 85 86 86 87 88 88 89 90 91 91 92 93 94 94 95 96 96 97 98 99 99 100 100 101 101 102 102 103 103 103 103 104 104 103 103 103 102 102 101 100 99 98 97 96 96 95 95 96 96 95 94 93 93 92 91 91
82 82 82 82 83 83 85 86 87 88 89 90 90 91 92 93 94 95 96 97 97 97 98 98 98 98 98 98 98 98 98 98 98 98 99 99 100 101 101 102 102 102 102 102 102 102 101 100 99 99 98 97 97 97 97 97 97 97 96 95 94 93 92
82 82 82 82 83 84 86 87 88 89 90 91 92 93 93 94 94 94 94 94 93 93 92 91 90 89 88 88 88 88 87 87 87 87 88 88 89 91 92 93 94 96 97 98 98 98 98 98 97 97 97 97 97 97 97 97 97 97 97 96 95 95 94
82 82 83 84 85 86 87 88 88 89 89 90 90 89 88 87 86 85 84 83 81 80 79 78 77 76 76 76 76 76 76 76 75 76 76 77 78 79 80 82 84 85 87 88 89 90 91 91 92 92 93 93 94 94 94 94 94 94 94 95 95 94 94
83 84 85 86 86 86 86 86 85 85 84 83 81 79 77 76 75 74 73 72 71 71 71 70 70 70 71 71 71 72 72 71 71 71 71 71 72 72 73 74 76 77 78 79 80 81 82 83 84 85 86 87 88 89 89 90 90 90 90 91 92 92 92
85 85 86 86 85 84 82 80 79 77 75 73 70 69 68 68 68 68 68 68 68 69 69 69 70 70 70 71 71 71 71 70 70 70 70 70 70 70 71 71 72 73 73 74 74 75 75 76 77 78 79 80 81 82 83 84 84 84 84 85 87 87 87
84 84 83 82 80 78 75 71 69 67 66 65 64 64 64 64 65 66 67 67 68 68 68 68 68 68 68 68 69 69 69 69 69 69 69 69 69 69 69 69 70 70 70 71 71 71 72 72 73 73 74 75 75 76 76 77 77 77 78 79 80 80 80
81 79 77 74 71 69 66 63 61 61 61 61 61 62 62 63 64 65 65 65 65 65 64 64 64 64 65 65 66 66 66 66 66 66 66 66 66 66 66 66 66 67 67 67 67 67 68 68 68 69 69 70 70 70 71 71 72 72 72 73 74 74 74
73 71 68 66 63 61 59 58 58 58 59 59 60 61 61 62 61 61 61 61 61 61 61 61 62 62 62 62 62 62 62 62 61 61 60 60 60 60 61 61 61 61 61 61 62 62 62 63 63 64 64 65 65 65 66 66 66 67 67 67 68 68 69
65 63 61 60 59 58 57 58 58 58 58 59 59 59 58 57 56 56 57 58 59 59 59 59 59 58 57 57 56 55 55 55 54 54 54 54 53 54 55 56 56 55 56 56 56 56 57 57 58 58 59 59 60 60 61 61 61 62 62 62 62 63 63
60 60 59 59 59 59 58 57 57 56 57 57 56 54 53 52 52 53 55 56 57 57 56 55 53 51 50 49 49 48 48 48 48 48 48 48 48 48 49 50 51 51 51 51 52 52 52 53 53 54 54 55 55 55 56 56 56 57 57 57 56 56 57
60 60 59 59 59 58 57 56 55 54 53 52 50 49 48 48 50 52 54 54 53 52 50 47 46 45 44 44 44 44 44 44 44 44 44 44 44 45 45 46 47 47 48 48 48 48 47 47 47 47 47 47 47 48 48 49 49 50 50 50 50 50 50
59 59 59 58 57 56 54 53 51 49 48 47 46 45 46 47 49 50 50 48 47 46 44 43 42 41 41 40 39 39 40 40 40 40 40 40 40 41 41 41 42 42 42 42 42 41 40 40 39 39 39 39 39 40 40 41 42 43 44 44 44 45 45
55 55 55 55 54 52 50 48 46 44 43 42 43 43 45 47 47 45 42 41 41 42 41 40 39 38 36 35 35 35 35 36 36 36 36 36 36 36 36 36 36 36 36 36 35 34 34 33 33 33 33 33 33 34 35 36 37 38 39 40 40 41 41
Wind_Direction
282 283 283 284 284 284 284 283 281 279 277 276 275 273 272 270 268 267 265 263 261 259 259 259 260 260 260 260 260 260 260 260 260 260 261 261 262 262 264 265 266 267 267 266 267 267 267 267 268 268 269 270 271 271 272 272 272 272 272 272 272 272 272
283 283 283 282 281 280 279 278 277 276 276 276 275 275 274 273 272 270 269 267 265 264 263 262 262 262 262 261 262 262 262 262 261 261 261 262 263 264 265 266 267 268 268 267 267 268 268 268 269 269 270 270 271 271 271 272 272 272 272 273 273 273 273
282 282 281 279 277 275 274 274 274 275 275 275 275 275 275 274 273 273 272 271 270 268 267 267 266 265 264 263 263 263 263 263 263 263 263 263 264 265 265 266 267 268 268 268 268 268 269 269 269 270 270 270 271 271 271 271 272 272 272 273 273 273 273
279 279 278 277 275 273 272 272 272 273 274 274 273 273 273 273 273 272 272 271 271 270 270 269 268 267 266 266 266 265 265 265 265 265 265 265 265 266 266 266 267 268 268 268 268 268 269 269 269 270 270 270 271 271 271 272 272 272 273 273 273 273 273
280 280 279 278 277 275 274 272 272 271 272 272 272 271 271 271 271 271 271 271 271 271 271 271 270 269 269 268 268 268 267 267 267 267 267 267 267 268 268 268 269 269 270 270 270 269 269 270 270 270 270 271 271 271 271 272 272 273 273 273 273 273 273
285 284 284 282 280 278 276 274 273 271 271 270 270 270 270 269 269 269 270 270 270 270 270 270 270 270 270 270 269 269 269 269 269 269 269 269 269 269 269 270 270 271 271 271 271 271 270 271 271 271 271 271 271 271 271 272 272 272 273 273 273 272 272
285 285 285 285 283 282 280 278 276 274 272 271 270 269 269 269 269 269 269 269 269 268 268 268 269 269 269 270 270 270 270 270 270 270 270 270 271 271 271 271 272 272 272 272 272 272 272 272 271 271 271 271 271 271 271 272 272 272 272 272 271 271 270
285 285 286 286 286 285 284 283 281 279 277 275 273 272 271 271 271 270 270 270 270 270 270 270 270 270 270 271 271 271 271 271 272 272 272 272 272 273 273 273 273 273 274 274 273 273 272 272 272 272 272 272 271 271 271 271 271 270 270 270 270 270 269
286 286 286 286 286 286 286 285 284 283 281 279 278 276 275 274 274 273 273 273 273 273 273 273 273 273 273 273 273 273 273 273 273 273 273 273 273 273 273 273 274 274 274 274 274 273 273 272 272 272 272 272 272 271 271 270 270 269 269 269 268 268 269
287 287 287 287 287 287 286 285 284 283 282 281 280 279 278 277 276 276 276 275 275 275 275 275 275 274 274 274 274 274 274 274 274 274 274 274 274 274 273 273 273 273 273 273 273 273 273 272 272 272 272 272 271 271 270 270 270 269 269 268 267 267 267
287 287 287 287 287 287 287 286 284 283 282 281 280 279 279 278 278 277 277 276 276 275 275 275 275 275 275 275 275 275 274 274 274 274 274 274 273 273 273 273 273 273 273 273 272 272 272 272 272 272 271 271 271 270 270 269 269 268 268 268 267 267 266
286 285 285 286 286 286 286 285 284 283 282 281 280 280 279 279 278 278 277 276 276 275 275 275 274 274 274 274 274 274 274 274 274 274 273 273 273 273 273 272 272 272 272 272 271 271 271 271 271 271 270 270 270 269 269 268 268 268 267 267 267 266 266
284 284 284 284 284 284 284 283 282 281 280 280 279 279 279 279 278 278 277 276 276 275 275 274 274 274 274 274 274 274 274 273 273 273 273 273 273 272 272 272 272 272 271 271 270 270 270 270 270 269 269 269 268 268 268 267 267 267 267 267 266 266 266
283 282 283 283 283 282 282 281 280 279 279 278 278 278 278 277 277 277 277 276 276 276 275 275 275 274 274 274 274 274 274 274 273 273 273 273 273 272 272 272 272 271 271 270 270 270 270 269 269 268 268 267 267 267 267 267 266 266 266 266 266 265 265
282 281 281 281 281 281 280 280 279 279 278 278 278 277 277 277 277 277 276 276 276 276 276 276 275 275 275 275 274 274 274 274 273 273 273 273 273 272 272 272 271 271 271 270 270 270 269 268 268 268 267 266 266 266 266 266 265 265 265 265 265 264 264
281 281 281 281 281 281 280 280 280 279 279 279 278 278 278 278 277 277 277 276 276 276 276 276 276 275 275 275 275 274 274 274 273 273 273 272 272 272 272 272 272 271 271 271 270 270 270 269 268 267 267 266 266 265 265 264 264 264 264 264 264 264 264
282 282 282 282 282 281 281 281 280 280 279 279 279 278 278 278 278 277 277 277 277 277 277 276 276 276 275 275 275 275 274 274 274 274 273 273 272 272 272 272 271 271 271 271 271 270 270 270 269 268 267 267 266 266 265 264 264 264 264 264 263 263 263
281 282 282 281 281 281 281 280 280 280 279 279 279 278 278 278 278 278 278 277 277 277 277 277 277 276 276 276 275 275 275 275 274 274 274 273 272 272 272 271 271 271 270 270 270 270 270 270 269 269 268 268 267 267 266 265 265 265 264 263 263 263 263
281 281 281 281 281 281 281 280 280 280 280 279 279 279 279 279 279 278 278 278 278 277 277 277 277 277 277 276 276 275 275 275 274 274 273 273 272 272 272 271 271 270 270 270 270 270 270 269 269 269 268 268 267 267 266 266 265 264 264 264 264 263 262
282 282 282 282 282 281 281 281 281 281 281 281 281 280 280 280 279 279 279 278 278 278 278 278 277 277 277 276 276 275 275 275 274 274 274 273 273 272 271 271 270 270 270 269 269 269 269 269 269 268 268 268 267 267 266 266 265 264 264 264 263 262 262
283 283 283 282 283 283 283 283 283 283 283 282 282 282 282 281 281 280 280 279 279 279 278 278 277 277 277 276 276 275 275 274 274 274 273 273 272 272 271 270 270 270 269 269 268 268 268 268 267 267 267 267 267 266 266 265 265 264 263 263 262 262 262
284 284 284 284 284 284 284 284 284 284 284 283 283 282 282 282 281 281 280 280 279 279 278 278 277 277 277 277 276 276 275 275 274 274 274 273 273 272 271 271 270 270 269 268 268 267 267 267 266 266 266 266 266 266 265 265 264 263 263 262 262 261 261
285 285 286 286 286 285 285 285 285 284 284 283 283 283 283 283 282 282 281 281 280 280 279 279 279 278 278 277 277 276 276 275 275 274 274 273 273 272 272 271 271 270 269 269 268 268 267 267 266 266 265 265 265 265 264 264 263 263 262 262 261 261 261
286 286 286 286 286 286 286 285 285 285 285 285 285 285 285 284 284 283 283 282 282 282 281 280 280 279 279 278 278 277 276 276 275 275 274 274 273 273 272 272 271 270 270 269 268 268 267 267 266 266 265 265 264 264 263 263 263 263 263 262 262 261 261
287 287 286 286 286 286 286 286 286 286 286 286 286 286 286 286 285 285 285 284 284 283 283 282 281 280 280 279 279 278 277 277 277 276 276 275 274 274 273 272 271 271 270 269 269 268 268 267 266 266 265 264 264 263 263 263 263 263 263 262 262 261 261
287 287 286 286 286 286 287 287 287 288 288 288 288 287 287 287 286 286 286 286 286 285 284 284 283 283 282 281 281 280 280 279 278 277 277 276 275 275 274 273 273 272 271 270 270 269 268 268 267 266 265 265 264 264 263 263 263 262 262 262 262 261 260
287 287 287 287 287 287 288 288 289 289 289 289 289 289 288 288 288 288 288 288 288 287 287 286 286 285 284 283 282 282 281 281 280 279 278 277 276 275 274 274 273 272 272 271 271 270 269 268 267 266 266 265 265 264 263 263 262 262 262 261 261 261 260
288 288 288 288 289 289 289 290 290 290 290 290 290 290 290 290 290 290 290 290 289 289 288 288 287 286 286 285 284 283 283 282 281 280 279 277 276 275 274 274 273 273 272 271 271 270 269 268 268 267 266 266 265 265 264 264 263 263 262 261 261 260 260
289 289 289 290 290 290 290 290 290 290 290 290 290 290 290 290 291 291 290 290 289 289 289 288 288 287 287 286 286 285 284 283 282 281 280 279 278 277 276 275 274 273 273 272 271 271 270 269 268 267 267 266 266 265 265 264 264 263 262 261 261 260 260
289 290 290 290 290 290 290 290 289 289 290 290 290 290 290 290 290 290 290 289 289 289 288 288 288 288 287 287 286 286 285 284 283 282 282 281 280 279 278 277 276 276 275 274 273 272 271 270 269 268 267 266 266 265 265 264 264 263 262 261 261 260 259
290 290 290 290 289 289 289 289 289 289 289 289 290 290 290 290 290 290 289 289 289 289 289 289 289 289 288 288 287 287 286 285 284 283 283 282 282 281 280 279 278 278 277 276 275 274 273 271 270 269 268 267 266 265 264 264 263 262 261 260 260 259 258
290 289 289 289 289 289 289 290 290 290 290 290 291 291 291 291 291 291 290 290 291 291 291 291 291 291 290 289 289 288 287 287 286 285 284 284 283 282 282 281 280 279 278 277 276 275 274 273 271 270 269 267 266 265 264 263 262 261 259 258 257 257 256
289 289 289 289 290 290 290 291 292 292 292 292 292 292 292 292 292 292 292 293 294 294 293 293 293 292 292 291 291 290 289 289 288 287 286 286 285 283 282 282 281 280 279 278 277 275 274 273 272 270 269 267 266 264 263 261 260 258 257 256 255 254 254
289 289 290 290 291 291 292 293 293 293 293 292 293 293 293 293 294 295 295 296 296 295 294 294 295 295 294 294 293 292 291 290 290 289 288 287 286 285 284 283 282 281 280 279 277 276 275 273 271 270 268 266 265 263 262 261 259 257 255 254 252 252 251
290 290 291 291 292 292 294 294 294 293 293 293 293 294 295 296 297 298 298 298 297 296 296 296 297 297 296 295 294 294 293 293 293 292 291 289 288 287 285 284 283 282 281 280 278 277 275 273 270 269 267 265 264 262 261 260 258 256 255 253 252 251 251
289 291 292 292 292 294 294 294 293 293 293 294 294 295 297 298 299 300 299 298 298 298 299 299 299 299 298 296 295 295 296 296 296 295 293 292 290 288 286 285 284 282 282 281 280 278 276 273 270 268 266 264 263 261 259 258 257 255 254 253 252 252 252
Height
5489 5488 5487 5486 5485 5484 5483 5482 5482 5482 5483 5483 5483 5483 5482 5482 5482 5482 5483 5482 5482 5481 5481 5481 5481 5481 5480 5478 5478 5479 5477 5476 5476 5474 5474 5473 5472 5472 5469 5468 5467 5468 5479 5486 5482 5480 5481 5481 5480 5481 5482 5481 5481 5480 5479 5478 5479 5480 5480 5481 5481 5481 5482
5480 5479 5478 5477 5477 5476 5475 5475 5474 5474 5474 5474 5474 5474 5473 5473 5473 5473 5473 5473 5473 5472 5471 5472 5472 5472 5471 5468 5469 5469 5468 5467 5466 5464 5465 5464 5462 5462 5460 5457 5457 5458 5464 5472 5474 5470 5470 5471 5470 5472 5473 5471 5471 5471 5469 5469 5470 5470 5470 5471 5471 5472 5472
5472 5471 5470 5470 5469 5469 5468 5467 5467 5466 5465 5465 5465 5465 5464 5464 5464 5464 5464 5464 5463 5462 5461 5462 5463 5462 5460 5459 5459 5459 5458 5456 5456 5454 5454 5454 5452 5451 5451 5448 5447 5448 5451 5458 5462 5461 5459 5460 5460 5461 5462 5461 5461 5461 5459 5459 5460 5459 5460 5461 5460 5461 5461
5465 5464 5463 5463 5462 5461 5461 5460 5459 5458 5457 5457 5456 5456 5456 5455 5455 5454 5454 5454 5453 5453 5452 5452 5452 5451 5449 5448 5449 5449 5447 5446 5445 5444 5443 5443 5442 5440 5440 5438 5436 5438 5440 5443 5449 5452 5449 5448 5449 5450 5451 5450 5450 5450 5449 5449 5449 5448 5449 5450 5449 5450 5451
5456 5455 5455 5454 5454 5453 5452 5451 5451 5450 5449 5448 5448 5447 5447 5446 5446 5445 5445 5445 5444 5443 5442 5442 5442 5441 5439 5438 5438 5438 5437 5435 5434 5433 5432 5432 5431 5429 5428 5427 5426 5427 5428 5429 5435 5440 5438 5435 5437 5438 5439 5439 5438 5438 5438 5438 5438 5437 5437 5438 5438 5439 5439
5447 5446 5445 5445 5444 5444 5443 5442 5441 5441 5440 5439 5438 5438 5438 5437 5437 5436 5436 5435 5434 5433 5432 5432 5431 5430 5428 5427 5427 5427 5425 5424 5423 5422 5421 5421 5420 5418 5416 5416 5415 5415 5415 5416 5421 5425 5426 5424 5424 5425 5427 5427 5426 5425 5427 5427 5427 5427 5427 5427 5427 5427 5428
5438 5437 5436 5435 5434 5434 5433 5433 5432 5431 5430 5429 5429 5428 5428 5427 5427 5427 5426 5425 5424 5423 5422 5421 5420 5419 5418 5417 5416 5415 5413 5412 5411 5410 5410 5409 5407 5405 5404 5404 5404 5402 5402 5404 5406 5410 5412 5412 5411 5412 5414 5415 5413 5413 5415 5416 5415 5416 5416 5415 5415 5415 5415
5429 5427 5426 5425 5424 5423 5422 5421 5421 5420 5420 5419 5419 5418 5418 5417 5416 5416 5415 5414 5413 5412 5411 5410 5409 5408 5407 5405 5404 5403 5401 5400 5399 5398 5398 5397 5395 5393 5392 5391 5391 5390 5389 5390 5392 5395 5399 5398 5397 5399 5401 5401 5401 5401 5403 5403 5401 5402 5404 5402 5402 5403 5403
5420 5418 5417 5416 5414 5413 5411 5410 5409 5408 5407 5407 5406 5406 5406 5406 5405 5404 5404 5403 5402 5401 5399 5398 5397 5396 5395 5393 5392 5390 5388 5387 5386 5385 5385 5385 5382 5380 5380 5379 5378 5377 5377 5377 5378 5381 5384 5383 5383 5387 5387 5386 5388 5389 5389 5388 5386 5389 5391 5390 5389 5391 5392
5409 5408 5407 5405 5404 5403 5401 5400 5398 5397 5396 5394 5394 5393 5393 5393 5392 5391 5391 5390 5389 5388 5387 5386 5385 5383 5382 5380 5379 5378 5376 5375 5374 5372 5372 5371 5369 5367 5367 5366 5366 5365 5365 5364 5364 5367 5369 5368 5370 5375 5374 5371 5374 5375 5373 5374 5373 5375 5376 5375 5376 5380 5381
5399 5397 5396 5395 5393 5392 5390 5388 5387 5385 5384 5382 5381 5381 5380 5380 5380 5379 5378 5377 5376 5375 5374 5373 5371 5370 5368 5367 5365 5364 5363 5361 5360 5359 5358 5358 5356 5355 5354 5354 5353 5352 5352 5350 5350 5353 5355 5354 5358 5363 5360 5357 5360 5360 5359 5361 5360 5360 5362 5361 5363 5367 5369
5389 5387 5386 5384 5383 5381 5379 5377 5375 5373 5372 5370 5369 5368 5367 5367 5368 5367 5366 5364 5363 5362 5361 5359 5358 5356 5355 5353 5352 5350 5349 5348 5347 5346 5345 5344 5343 5342 5341 5341 5339 5339 5339 5337 5336 5338 5341 5343 5345 5347 5346 5344 5345 5345 5345 5346 5346 5346 5348 5348 5349 5353 5356
5379 5377 5376 5374 5373 5371 5369 5366 5364 5362 5360 5359 5357 5355 5355 5355 5355 5354 5352 5350 5349 5348 5346 5345 5344 5343 5341 5340 5338 5337 5335 5334 5333 5332 5331 5330 5329 5329 5328 5327 5326 5325 5324 5323 5322 5323 5328 5332 5330 5329 5332 5331 5328 5328 5330 5331 5332 5333 5333 5333 5335 5340 5341
5369 5367 5365 5363 5361 5359 5357 5354 5353 5351 5349 5347 5345 5343 5343 5343 5342 5341 5339 5337 5335 5334 5332 5331 5329 5328 5328 5326 5324 5323 5321 5320 5319 5318 5317 5316 5315 5315 5314 5313 5312 5311 5308 5307 5307 5308 5314 5319 5315 5313 5316 5317 5313 5313 5316 5316 5317 5319 5318 5318 5321 5324 5324
5358 5355 5353 5350 5349 5347 5345 5342 5340 5339 5337 5335 5333 5331 5331 5331 5329 5327 5326 5324 5321 5319 5318 5316 5314 5313 5312 5311 5309 5308 5306 5305 5304 5303 5302 5302 5300 5300 5300 5299 5299 5296 5293 5292 5292 5293 5297 5302 5302 5298 5300 5301 5299 5299 5301 5302 5302 5303 5304 5305 5307 5309 5310
5345 5343 5341 5338 5336 5335 5333 5329 5326 5325 5324 5321 5319 5318 5318 5317 5315 5313 5311 5309 5307 5305 5304 5302 5300 5298 5297 5296 5295 5293 5290 5289 5288 5288 5288 5287 5286 5286 5285 5286 5285 5281 5279 5278 5278 5278 5280 5285 5287 5284 5283 5286 5285 5285 5287 5287 5286 5289 5291 5291 5292 5295 5298
5333 5330 5328 5326 5323 5322 5320 5317 5313 5312 5311 5308 5306 5304 5304 5303 5302 5300 5298 5296 5293 5291 5289 5287 5285 5283 5282 5281 5280 5278 5275 5274 5272 5272 5273 5272 5272 5272 5271 5272 5270 5265 5264 5264 5263 5262 5264 5267 5269 5268 5268 5270 5270 5270 5271 5270 5272 5277 5277 5275 5277 5283 5286
5321 5318 5315 5313 5311 5308 5307 5304 5301 5298 5297 5295 5292 5291 5291 5290 5289 5287 5285 5282 5280 5278 5275 5273 5270 5268 5267 5266 5265 5263 5261 5259 5256 5256 5256 5255 5255 5256 5257 5257 5254 5250 5250 5250 5247 5248 5249 5250 5252 5252 5253 5253 5253 5254 5254 5254 5259 5263 5260 5258 5265 5270 5270
5309 5307 5303 5300 5298 5295 5293 5291 5288 5285 5284 5282 5279 5277 5277 5276 5275 5274 5271 5269 5267 5265 5261 5258 5256 5254 5252 5251 5249 5247 5245 5243 5240 5239 5239 5238 5238 5240 5241 5240 5236 5235 5236 5235 5233 5234 5234 5234 5236 5236 5236 5237 5238 5238 5236 5238 5244 5247 5243 5244 5252 5254 5252
5296 5295 5292 5288 5285 5282 5279 5277 5276 5273 5270 5268 5266 5263 5262 5261 5260 5258 5256 5254 5253 5250 5248 5244 5241 5239 5237 5235 5233 5232 5229 5227 5224 5222 5223 5223 5222 5223 5224 5222 5219 5220 5221 5219 5219 5220 5220 5220 5221 5220 5219 5221 5223 5221 5220 5221 5227 5230 5229 5231 5235 5237 5237
5284 5282 5280 5276 5272 5269 5266 5263 5262 5259 5256 5253 5251 5248 5247 5245 5244 5242 5241 5239 5238 5235 5233 5229 5226 5223 5221 5218 5217 5215 5213 5211 5209 5206 5206 5207 5205 5205 5206 5204 5203 5204 5204 5203 5203 5205 5205 5205 5206 5205 5205 5205 5205 5204 5205 5205 5208 5212 5214 5216 5219 5221 5222
5271 5269 5267 5263 5259 5255 5252 5249 5247 5245 5242 5238 5236 5233 5231 5230 5228 5226 5224 5224 5222 5219 5216 5214 5211 5208 5205 5202 5200 5198 5196 5194 5192 5190 5189 5189 5187 5187 5187 5185 5185 5186 5186 5185 5186 5188 5188 5190 5191 5191 5191 5190 5188 5188 5189 5188 5190 5194 5197 5200 5203 5204 5205
5258 5255 5253 5250 5246 5241 5238 5235 5232 5230 5227 5223 5221 5219 5217 5214 5212 5210 5208 5206 5205 5203 5200 5197 5195 5192 5189 5186 5183 5181 5178 5177 5175 5173 5171 5170 5168 5168 5167 5166 5167 5167 5167 5167 5168 5169 5171 5173 5174 5174 5175 5174 5172 5171 5170 5170 5173 5177 5180 5183 5186 5189 5191
5244 5241 5239 5236 5233 5228 5224 5220 5218 5215 5212 5209 5206 5204 5201 5198 5195 5192 5189 5188 5187 5185 5182 5180 5177 5174 5171 5168 5165 5162 5161 5159 5157 5155 5153 5152 5150 5149 5148 5147 5148 5148 5147 5148 5149 5151 5153 5155 5156 5156 5156 5156 5155 5153 5153 5154 5157 5160 5163 5167 5170 5173 5176
5231 5228 5225 5223 5220 5216 5211 5206 5203 5200 5197 5194 5191 5188 5185 5181 5178 5175 5172 5171 5169 5167 5164 5162 5159 5156 5153 5150 5147 5145 5144 5143 5141 5139 5137 5135 5133 5131 5130 5129 5129 5129 5129 5129 5131 5132 5134 5136 5137 5137 5137 5137 5137 5137 5138 5140 5142 5144 5146 5150 5154 5157 5160
5217 5215 5212 5209 5206 5203 5199 5194 5190 5186 5182 5179 5176 5173 5169 5165 5162 5159 5157 5155 5153 5150 5147 5145 5143 5141 5138 5135 5132 5130 5130 5129 5127 5125 5123 5121 5119 5117 5115 5114 5113 5113 5112 5113 5114 5115 5116 5118 5119 5118 5119 5120 5119 5121 5123 5124 5125 5127 5130 5133 5136 5139 5144
5204 5201 5197 5195 5192 5189 5186 5182 5177 5173 5169 5165 5162 5158 5154 5151 5148 5146 5143 5141 5139 5136 5133 5131 5129 5127 5124 5122 5120 5118 5116 5116 5115 5112 5111 5109 5107 5105 5103 5101 5099 5099 5099 5099 5099 5100 5101 5102 5102 5102 5103 5103 5103 5105 5107 5107 5108 5111 5115 5117 5118 5121 5127
5190 5186 5183 5181 5179 5175 5173 5169 5164 5159 5156 5153 5149 5146 5142 5139 5137 5134 5131 5129 5126 5124 5121 5119 5116 5113 5111 5109 5107 5105 5104 5102 5101 5099 5098 5096 5094 5092 5091 5089 5087 5086 5086 5086 5086 5086 5087 5087 5087 5088 5088 5088 5088 5090 5092 5092 5093 5097 5100 5101 5101 5105 5112
5176 5172 5169 5167 5165 5162 5160 5158 5153 5148 5145 5142 5139 5136 5133 5130 5128 5124 5121 5118 5115 5113 5111 5108 5105 5102 5099 5097 5094 5093 5091 5089 5087 5086 5084 5082 5080 5079 5078 5076 5075 5074 5074 5073 5073 5073 5073 5073 5074 5075 5075 5074 5075 5077 5078 5078 5080 5083 5085 5085 5087 5091 5097
5162 5159 5156 5155 5153 5150 5148 5147 5144 5140 5137 5133 5130 5127 5125 5122 5119 5116 5112 5109 5105 5103 5101 5098 5096 5093 5089 5086 5084 5082 5080 5077 5075 5074 5072 5069 5067 5066 5065 5064 5062 5061 5061 5061 5061 5060 5060 5060 5060 5062 5062 5062 5063 5065 5065 5066 5067 5069 5071 5073 5075 5078 5082
5149 5147 5145 5144 5143 5141 5139 5137 5135 5132 5128 5125 5122 5119 5116 5113 5110 5106 5103 5099 5096 5094 5092 5088 5086 5084 5080 5076 5074 5072 5069 5067 5065 5063 5061 5059 5057 5055 5053 5052 5051 5050 5050 5050 5049 5048 5048 5048 5048 5049 5050 5050 5051 5052 5053 5053 5055 5056 5059 5061 5063 5066 5068
5137 5136 5135 5133 5132 5131 5130 5128 5125 5122 5119 5116 5113 5110 5107 5104 5101 5097 5093 5090 5087 5085 5082 5079 5076 5074 5071 5067 5065 5063 5060 5057 5056 5054 5052 5050 5049 5046 5044 5042 5041 5041 5040 5039 5039 5038 5038 5037 5038 5038 5039 5039 5040 5041 5041 5042 5043 5045 5047 5049 5051 5054 5056
5128 5126 5125 5124 5122 5121 5120 5118 5116 5113 5109 5106 5103 5101 5099 5096 5092 5088 5084 5081 5079 5076 5073 5070 5067 5065 5062 5059 5057 5054 5052 5049 5047 5045 5044 5042 5040 5039 5036 5034 5033 5032 5031 5030 5030 5029 5028 5028 5028 5028 5028 5029 5029 5030 5031 5031 5033 5034 5036 5038 5040 5043 5045
5117 5116 5116 5115 5113 5111 5110 5108 5106 5103 5100 5097 5095 5093 5091 5088 5085 5080 5076 5073 5070 5068 5065 5062 5060 5057 5055 5052 5050 5047 5045 5043 5041 5038 5037 5035 5033 5031 5029 5027 5025 5024 5023 5022 5021 5020 5020 5019 5019 5019 5019 5020 5020 5021 5022 5023 5024 5025 5027 5029 5031 5033 5036
5107 5105 5105 5104 5103 5102 5101 5099 5096 5094 5091 5089 5087 5085 5083 5080 5077 5073 5069 5065 5062 5060 5058 5056 5053 5051 5049 5046 5044 5041 5039 5037 5034 5032 5030 5028 5026 5024 5022 5020 5018 5017 5015 5014 5014 5013 5012 5012 5012 5012 5012 5012 5013 5014 5015 5016 5017 5018 5020 5022 5024 5026 5028
5101 5097 5095 5094 5093 5094 5093 5091 5088 5086 5084 5082 5080 5078 5076 5073 5070 5067 5063 5060 5056 5053 5051 5049 5047 5045 5043 5041 5038 5036 5034 5031 5029 5027 5024 5022 5020 5018 5016 5014 5012 5011 5010 5008 5007 5006 5006 5006 5006 5006 5006 5007 5008 5008 5009 5010 5011 5012 5014 5015 5017 5019 5021